Location: ??
(35.1714°N, 128.2806°E)
Time: 15:33:12
(UTC+00:00)

Cosmos 1602 Rocket - Pass Details

Date: 29 October 2020
Orbit: 603 x 633 km, 82.5° (Epoch: 01 December)

Event Time Altitude Azimuth Distance (km) Brightness Sun altitude
Rises 20:47:20 0° 179° (S) 2,884 7.1 -12.6°
Reaches altitude 10° 20:49:33 10° 177° (S) 1,987 6.3 -12.1°
Maximum altitude 20:53:55 69° 95° (E) 674 4.0 -11.3°
Drops below altitude 10° 20:58:22 10° 12° (NNE) 2,016 6.2 -10.4°
Sets 21:00:37 0° 10° (N) 2,930 7.0 -9.9°
